Location: Cz?stochówka
(50.8142°N, 19.0915°E)
Time: 01:35:12
(UTC+00:00)

Cosmos 2366 rocket - Pass Details

Date: 18 April 2026
Orbit: 954 x 996 km, 82.9° (Epoch: 19 May)

Event Time Altitude Azimuth Distance (km) Brightness Sun altitude
Rises 20:52:18 0° 247° (WSW) 3,636 7.1 -23.6°
Reaches altitude 10° 20:56:00 10° 269° (W) 2,690 6.6 -23.9°
Maximum altitude 20:59:30 15° 304° (NW) 2,316 6.7 -24.2°
Drops below altitude 10° 21:03:01 10° 340° (NNW) 2,695 7.4 -24.4°
Sets 21:06:45 0° 2° (N) 3,647 8.0 -24.7°
